Back to catalog

COSMOS 1867 COOLANT

AliveLEO
NORAD 43326·DEBRIS·🇷🇺 Russia

Launched Jul 10, 1987 from Baikonur Cosmodrome

Loading…

Next Passes (next 24 hours)

TLE

AgingSource: Space-Track

Epoch: Sep 11, 2026, 09:20 UTC

1 43326U 87060AT  26254.38897328  .00000172  00000-0  96456-4 0  9990
2 43326  65.0088 128.2784 0019220 279.7691  80.1224 14.34430433469616

Track COSMOS 1867 COOLANT in real time with AllMySat

Download on the App Store